Natchitoches, LA

9:47 PM CDT on October 18, 2019 (GMT -0500)
Natchitoches Regional

Weather History for KIER - August, 2019

Change the Weather History Date:

Wednesday, August 21, 2019

  Actual Average Record
Temperature  
Mean Temperature 86 °F -  
Max Temperature 100 °F 94 °F 104 °F (2011)
Min Temperature 72 °F 71 °F 57 °F (1940)
Cooling Degree Days 20    
Growing Degree Days 36 (Base 50)    
Moisture  
Dew Point 73 °F    
Average Humidity 72    
Maximum Humidity 99    
Minimum Humidity 38    
Precipitation  
Precipitation 0.00 in - - ()
Sea Level Pressure  
Sea Level Pressure 30.00 in    
Wind  
Wind Speed 3 mph (South)    
Max Wind Speed 9 mph    
Max Gust Speed -    
Visibility 9 miles    
Events Fog    
Averages and records for this station are not official NWS values.
T = Trace of Precipitation, MM = Missing Value Source: NWS Daily Summary

Daily Weather History Graph

Daily Weather History Graph

Search for Another Location

Airport or City:

Astronomy

Aug. 21, 2019 Rise Set
Actual Time 6:41 AM CDT 7:49 PM CDT
Civil Twilight 6:15 AM CDT 8:14 PM CDT
Nautical Twilight 5:45 AM CDT 8:44 PM CDT
Astronomical Twilight 5:14 AM CDT 9:15 PM CDT
Moon 11:28 PM CDT (8/21) 11:57 AM CDT (8/21)
Length of Visible Light 13h 59m
Length of Day
13h 08m
Waning Gibbous, 69% of the Moon is Illuminated
Aug 21
Waning Gibbous
Aug 23
Last Quarter
Aug 30
New
Sep 5
First Quarter
Sep 13
Full

Hourly Weather History & Observations

Time (CDT) Temp. Heat Index Dew Point Humidity Pressure Visibility Wind Dir Wind Speed Gust Speed Precip Events Conditions
12:35 AM 76.1 °F - 74.7 °F 95% 30.05 in 10.0 mi Calm Calm - N/A   Clear
12:55 AM 76.1 °F - 74.5 °F 95% 30.05 in 10.0 mi Calm Calm - N/A   Clear
1:15 AM 75.6 °F - 74.3 °F 96% 30.03 in 10.0 mi Calm Calm - N/A   Clear
1:35 AM 74.3 °F - 73.4 °F 97% 30.03 in 7.0 mi Calm Calm - N/A   Clear
2:15 AM 74.3 °F - 73.6 °F 98% 30.02 in 10.0 mi SSW 3.5 mph - N/A   Clear
2:55 AM 73.9 °F - 73.4 °F 98% 30.00 in 10.0 mi Calm Calm - N/A   Clear
3:15 AM 73.0 °F - 72.5 °F 98% 30.00 in 7.0 mi Calm Calm - N/A   Clear
3:35 AM 73.4 °F - 73.0 °F 99% 30.00 in 10.0 mi Calm Calm - N/A   Clear
3:55 AM 73.4 °F - 72.9 °F 98% 30.01 in 7.0 mi Calm Calm - N/A   Clear
4:15 AM 72.9 °F - 72.5 °F 99% 30.01 in 7.0 mi Calm Calm - N/A   Clear
4:35 AM 72.7 °F - 72.5 °F 99% 30.01 in 7.0 mi South 4.6 mph - N/A   Clear
4:55 AM 72.9 °F - 72.5 °F 99% 30.01 in 5.0 mi SSE 3.5 mph - N/A   Clear
5:15 AM 72.9 °F - 72.5 °F 99% 30.01 in 7.0 mi SSW 3.5 mph - N/A   Clear
5:35 AM 72.5 °F - 72.1 °F 99% 30.01 in 5.0 mi Calm Calm - N/A   Clear
5:55 AM 72.5 °F - 72.1 °F 99% 30.01 in 5.0 mi Calm Calm - N/A   Clear
6:35 AM 72.0 °F - 71.8 °F 99% 30.02 in 1.5 mi Calm Calm - N/A   Mist
6:55 AM 72.5 °F - 72.1 °F 99% 30.02 in 2.5 mi SSW 3.5 mph - N/A   Mostly Cloudy
7:15 AM 73.0 °F - 72.9 °F 99% 30.03 in 0.5 mi South 3.5 mph - N/A Fog Fog
7:35 AM 73.6 °F - 73.4 °F 99% 30.03 in 0.5 mi Calm Calm - N/A Fog Fog
7:55 AM 74.3 °F - 73.9 °F 99% 30.03 in 3.0 mi Calm Calm - N/A   Overcast
8:15 AM 76.1 °F - 75.0 °F 96% 30.05 in 7.0 mi Calm Calm - N/A   Scattered Clouds
8:35 AM 79.0 °F - 75.4 °F 89% 30.05 in 10.0 mi Calm Calm - N/A   Clear
8:55 AM 82.6 °F 90.5 °F 76.1 °F 81% 30.06 in 10.0 mi West 3.5 mph - N/A   Clear
9:15 AM 83.3 °F 92.1 °F 76.5 °F 80% 30.06 in 10.0 mi WSW 6.9 mph - N/A   Clear
9:35 AM 86.2 °F 97.4 °F 77.0 °F 74% 30.06 in 10.0 mi WNW 6.9 mph - N/A   Clear
9:55 AM 86.9 °F 98.3 °F 76.8 °F 72% 30.06 in 10.0 mi West 6.9 mph - N/A   Scattered Clouds
10:15 AM 87.6 °F 99.7 °F 77.0 °F 71% 30.07 in 10.0 mi WNW 9.2 mph - N/A   Scattered Clouds
10:35 AM 88.2 °F 100.1 °F 76.6 °F 69% 30.08 in 10.0 mi NW 6.9 mph - N/A   Scattered Clouds
10:55 AM 88.7 °F 101.0 °F 77.0 °F 68% 30.08 in 10.0 mi NNW 3.5 mph - N/A   Mostly Cloudy
11:15 AM 86.9 °F 95.9 °F 74.8 °F 67% 30.08 in 10.0 mi WNW 5.8 mph - N/A   Mostly Cloudy
11:55 AM 90.9 °F 102.4 °F 75.6 °F 61% 30.08 in 10.0 mi North 5.8 mph - N/A   Scattered Clouds
12:15 PM 91.9 °F 102.6 °F 74.5 °F 57% 30.07 in 10.0 mi NNE 3.5 mph - N/A   Clear
12:35 PM 93.2 °F 104.3 °F 75.0 °F 55% 30.06 in 10.0 mi North 5.8 mph - N/A   Scattered Clouds
12:55 PM 94.1 °F 105.2 °F 74.8 °F 53% 30.04 in 10.0 mi Calm Calm - N/A   Clear
1:15 PM 94.6 °F 105.1 °F 74.1 °F 51% 30.03 in 10.0 mi Calm Calm - N/A   Clear
1:35 PM 95.2 °F 103.6 °F 72.3 °F 47% 30.02 in 10.0 mi Calm Calm - N/A   Clear
1:55 PM 96.3 °F 106.0 °F 73.0 °F 47% 30.01 in 10.0 mi NNW 3.5 mph - N/A   Clear
2:15 PM 96.6 °F 105.4 °F 72.1 °F 45% 30.01 in 10.0 mi NNW 4.6 mph - N/A   Clear
2:35 PM 97.5 °F 104.6 °F 70.0 °F 41% 29.99 in 10.0 mi NW 4.6 mph - N/A   Clear
2:55 PM 96.4 °F 103.0 °F 70.2 °F 42% 29.98 in 10.0 mi NNW 3.5 mph - N/A   Clear
3:15 PM 97.2 °F 105.2 °F 71.1 °F 43% 29.97 in 10.0 mi NW 5.8 mph - N/A   Clear
3:35 PM 97.3 °F 106.3 °F 72.0 °F 44% 29.97 in 10.0 mi NW 4.6 mph - N/A   Clear
3:55 PM 98.1 °F 107.2 °F 72.3 °F 43% 29.96 in 10.0 mi NE 5.8 mph - N/A   Scattered Clouds
4:35 PM 99.5 °F 108.1 °F 71.4 °F 40% 29.95 in 10.0 mi Calm Calm - N/A   Clear
4:55 PM 95.4 °F 102.7 °F 70.9 °F 45% 29.95 in 10.0 mi Calm Calm - N/A   Clear
5:15 PM 98.4 °F 104.4 °F 68.7 °F 38% 29.94 in 10.0 mi Calm Calm - N/A   Clear
5:35 PM 99.1 °F 105.9 °F 69.8 °F 38% 29.94 in 10.0 mi East 3.5 mph - N/A   Clear
5:55 PM 99.0 °F 106.2 °F 70.2 °F 39% 29.94 in 10.0 mi SE 4.6 mph - N/A   Clear
6:15 PM 97.7 °F 104.3 °F 69.4 °F 40% 29.94 in 10.0 mi SE 4.6 mph - N/A   Clear
6:35 PM 96.6 °F 102.1 °F 68.5 °F 40% 29.93 in 10.0 mi SE 5.8 mph - N/A   Clear
6:55 PM 93.2 °F 98.3 °F 69.1 °F 45% 29.93 in 10.0 mi SE 4.6 mph - N/A   Clear
7:15 PM 92.8 °F 99.2 °F 70.7 °F 48% 29.93 in 10.0 mi SSE 5.8 mph - N/A   Scattered Clouds
7:35 PM 90.0 °F 97.4 °F 72.1 °F 56% 29.94 in 10.0 mi South 4.6 mph - N/A   Scattered Clouds
7:55 PM 89.4 °F 96.3 °F 72.0 °F 56% 29.95 in 10.0 mi South 5.8 mph - N/A   Mostly Cloudy
8:15 PM 87.8 °F 95.2 °F 73.0 °F 61% 29.95 in 10.0 mi South 8.1 mph - N/A   Overcast
8:35 PM 85.8 °F 93.4 °F 73.8 °F 67% 29.95 in 10.0 mi South 9.2 mph - N/A   Scattered Clouds
8:55 PM 84.4 °F 92.0 °F 74.5 °F 72% 29.96 in 10.0 mi South 6.9 mph - N/A   Clear
9:15 PM 83.7 °F 91.3 °F 75.0 °F 75% 29.98 in 10.0 mi SSE 8.1 mph - N/A   Scattered Clouds
9:35 PM 82.6 °F 89.7 °F 75.2 °F 78% 29.98 in 10.0 mi SSE 6.9 mph - N/A   Scattered Clouds
9:55 PM 81.9 °F 88.5 °F 75.0 °F 80% 29.99 in 10.0 mi SSE 6.9 mph - N/A   Scattered Clouds
10:15 PM 81.0 °F 86.3 °F 74.3 °F 80% 29.99 in 10.0 mi SE 5.8 mph - N/A   Clear
10:35 PM 80.6 °F 85.5 °F 73.9 °F 80% 29.99 in 10.0 mi SSE 8.1 mph - N/A   Clear
10:55 PM 79.7 °F - 73.8 °F 82% 29.99 in 10.0 mi SSE 5.8 mph - N/A   Clear
11:15 PM 78.6 °F - 74.1 °F 86% 29.98 in 10.0 mi SSE 4.6 mph - N/A   Clear
11:35 PM 78.1 °F - 74.3 °F 88% 29.98 in 10.0 mi SSE 4.6 mph - N/A   Clear
11:55 PM 77.9 °F - 74.7 °F 90% 29.98 in 10.0 mi SSE 5.8 mph - N/A   Clear